• In Hungary
  • List of Countries
  • For 7 days
  • Water Temperature
  • Satellite Maps
  • Weather Map
  • News
  • Weather Widgets
  • user-avatar
    Login

    Hourly Weather Vechrik

    Today, 16 July, Monday

    Time Temperature Precipitation Wind Pressure Humidity
    00:00 +20°C° 0 mm 2 mps 669 mmHg 69%
    01:00 +20°C° 0 mm 2 mps 669 mmHg 69%
    02:00 +20°C° 0 mm 2 mps 669 mmHg 68%
    03:00 +20°C° 0 mm 3 mps 669 mmHg 63%
    04:00 +21°C° 0 mm 3 mps 669 mmHg 64%
    05:00 +21°C° 0 mm 3 mps 669 mmHg 65%
    06:00 +22°C° 0 mm 3 mps 670 mmHg 66%
    07:00 +24°C° 0 mm 3 mps 670 mmHg 64%
    08:00 +25°C° 0 mm 4 mps 670 mmHg 63%
    09:00 +26°C° 0 mm 4 mps 670 mmHg 61%
    10:00 +26°C° 0.4 mm 5 mps 670 mmHg 63%
    11:00 +26°C° 0.4 mm 5 mps 670 mmHg 64%
    12:00 +26°C° 0.4 mm 5 mps 670 mmHg 65%
    13:00 +25°C° 1.2 mm 4 mps 670 mmHg 68%
    14:00 +25°C° 1.2 mm 4 mps 670 mmHg 71%
    15:00 +24°C° 1.2 mm 3 mps 670 mmHg 74%
    16:00 +24°C° 0.4 mm 3 mps 670 mmHg 74%
    17:00 +23°C° 0.4 mm 2 mps 670 mmHg 75%
    18:00 +23°C° 0.4 mm 2 mps 670 mmHg 76%
    19:00 +21°C° 0 mm 2 mps 670 mmHg 78%
    20:00 +20°C° 0 mm 2 mps 670 mmHg 81%
    21:00 +18°C° 0 mm 2 mps 670 mmHg 84%
    22:00 +18°C° 0 mm 2 mps 670 mmHg 81%
    23:00 +18°C° 0 mm 2 mps 671 mmHg 78%

    Tomorrow, 17 July, Tuesday

    Time Temperature Precipitation Wind Pressure Humidity
    00:00 +18°C° 0 mm 2 mps 671 mmHg 75%
    01:00 +18°C° 0 mm 2 mps 671 mmHg 73%
    02:00 +18°C° 0 mm 2 mps 671 mmHg 71%
    03:00 +18°C° 0 mm 2 mps 671 mmHg 69%
    04:00 +18°C° 0.2 mm 2 mps 671 mmHg 69%
    05:00 +18°C° 0.2 mm 2 mps 672 mmHg 70%
    06:00 +19°C° 0.2 mm 2 mps 672 mmHg 70%
    07:00 +20°C° 0 mm 2 mps 672 mmHg 65%
    08:00 +23°C° 0 mm 2 mps 673 mmHg 60%
    09:00 +25°C° 0 mm 2 mps 673 mmHg 55%
    10:00 +25°C° 0.1 mm 3 mps 673 mmHg 54%
    11:00 +26°C° 0.1 mm 3 mps 673 mmHg 53%
    12:00 +27°C° 0.1 mm 3 mps 673 mmHg 53%
    13:00 +27°C° 0.3 mm 3 mps 672 mmHg 55%
    14:00 +26°C° 0.3 mm 4 mps 672 mmHg 56%
    15:00 +26°C° 0.3 mm 4 mps 672 mmHg 58%
    16:00 +25°C° 0.6 mm 3 mps 672 mmHg 63%
    17:00 +24°C° 0.6 mm 3 mps 672 mmHg 68%
    18:00 +24°C° 0.6 mm 2 mps 671 mmHg 73%
    19:00 +21°C° 0.4 mm 2 mps 672 mmHg 77%
    20:00 +20°C° 0.4 mm 2 mps 672 mmHg 81%
    21:00 +19°C° 0.4 mm 2 mps 672 mmHg 84%
    22:00 +19°C° 0 mm 2 mps 672 mmHg 81%
    23:00 +19°C° 0 mm 2 mps 672 mmHg 77%

    Day after tomorrow, 18 July, Wednesday

    Time Temperature Precipitation Wind Pressure Humidity
    00:00 +18°C° 0 mm 2 mps 672 mmHg 74%
    01:00 +18°C° 0 mm 2 mps 671 mmHg 71%
    02:00 +18°C° 0 mm 2 mps 671 mmHg 68%
    03:00 +18°C° 0 mm 2 mps 671 mmHg 65%
    04:00 +20°C° 0 mm 1 mps 672 mmHg 63%
    05:00 +21°C° 0 mm 1 mps 672 mmHg 62%
    06:00 +21°C° 0 mm 1 mps 672 mmHg 60%
    07:00 +23°C° 0 mm 2 mps 672 mmHg 58%
    08:00 +25°C° 0 mm 2 mps 673 mmHg 55%
    09:00 +26°C° 0 mm 2 mps 673 mmHg 53%
    10:00 +27°C° 0 mm 3 mps 673 mmHg 52%
    11:00 +28°C° 0 mm 3 mps 673 mmHg 51%
    12:00 +29°C° 0 mm 4 mps 672 mmHg 51%
    13:00 +29°C° 0 mm 4 mps 672 mmHg 52%
    14:00 +29°C° 0 mm 4 mps 672 mmHg 54%
    15:00 +28°C° 0 mm 4 mps 672 mmHg 55%
    16:00 +28°C° 0 mm 3 mps 672 mmHg 59%
    17:00 +27°C° 0 mm 3 mps 671 mmHg 63%
    18:00 +26°C° 0 mm 2 mps 671 mmHg 66%
    19:00 +24°C° 0 mm 2 mps 671 mmHg 69%
    20:00 +23°C° 0 mm 1 mps 671 mmHg 71%
    21:00 +21°C° 0 mm 1 mps 671 mmHg 74%
    22:00 +21°C° 0 mm 1 mps 671 mmHg 69%
    23:00 +21°C° 0 mm 1 mps 671 mmHg 64%

    19 July, Thursday

    Time Temperature Precipitation Wind Pressure Humidity
    00:00 +20°C° 0 mm 2 mps 671 mmHg 60%
    01:00 +20°C° 0 mm 2 mps 671 mmHg 57%
    02:00 +20°C° 0 mm 2 mps 671 mmHg 54%
    03:00 +20°C° 0 mm 2 mps 671 mmHg 51%
    04:00 +21°C° 0 mm 2 mps 671 mmHg 51%
    05:00 +23°C° 0 mm 2 mps 671 mmHg 51%
    06:00 +24°C° 0 mm 2 mps 671 mmHg 52%
    07:00 +25°C° 0 mm 2 mps 671 mmHg 49%
    08:00 +27°C° 0 mm 2 mps 672 mmHg 46%
    09:00 +29°C° 0 mm 2 mps 672 mmHg 43%
    10:00 +30°C° 0 mm 3 mps 672 mmHg 43%
    11:00 +31°C° 0 mm 3 mps 672 mmHg 43%
    12:00 +33°C° 0 mm 3 mps 672 mmHg 42%
    13:00 +31°C° 0 mm 3 mps 671 mmHg 43%
    14:00 +31°C° 0 mm 3 mps 671 mmHg 44%
    15:00 +31°C° 0 mm 3 mps 671 mmHg 45%
    16:00 +30°C° 0 mm 2 mps 671 mmHg 49%
    17:00 +29°C° 0 mm 2 mps 671 mmHg 53%
    18:00 +29°C° 0 mm 1 mps 671 mmHg 57%
    19:00 +27°C° 0 mm 1 mps 671 mmHg 61%
    20:00 +25°C° 0 mm 1 mps 671 mmHg 64%
    21:00 +24°C° 0 mm 1 mps 671 mmHg 68%
    22:00 +24°C° 0 mm 2 mps 671 mmHg 65%
    23:00 +23°C° 0 mm 2 mps 671 mmHg 63%

    20 July, Friday

    Time Temperature Precipitation Wind Pressure Humidity
    00:00 +23°C° 0 mm 2 mps 671 mmHg 60%
    01:00 +23°C° 0 mm 2 mps 671 mmHg 58%
    02:00 +23°C° 0 mm 2 mps 671 mmHg 55%
    03:00 +23°C° 0 mm 2 mps 671 mmHg 53%
    04:00 +24°C° 0 mm 2 mps 671 mmHg 53%
    05:00 +25°C° 0 mm 2 mps 671 mmHg 53%
    06:00 +26°C° 0 mm 2 mps 671 mmHg 53%
    07:00 +27°C° 0 mm 2 mps 672 mmHg 49%
    08:00 +29°C° 0 mm 3 mps 672 mmHg 46%
    09:00 +31°C° 0 mm 3 mps 672 mmHg 42%
    10:00 +33°C° 0 mm 3 mps 672 mmHg 41%
    11:00 +33°C° 0 mm 4 mps 672 mmHg 41%
    12:00 +34°C° 0 mm 4 mps 672 mmHg 40%
    13:00 +34°C° 0 mm 4 mps 672 mmHg 42%
    14:00 +33°C° 0 mm 4 mps 671 mmHg 43%
    15:00 +33°C° 0 mm 4 mps 671 mmHg 45%
    16:00 +31°C° 0 mm 3 mps 671 mmHg 49%
    17:00 +30°C° 0 mm 3 mps 671 mmHg 53%
    18:00 +29°C° 0 mm 2 mps 671 mmHg 57%
    19:00 +28°C° 0 mm 2 mps 671 mmHg 60%
    20:00 +26°C° 0 mm 2 mps 671 mmHg 64%
    21:00 +25°C° 0 mm 2 mps 670 mmHg 68%
    22:00 +24°C° 0 mm 2 mps 670 mmHg 66%
    23:00 +24°C° 0 mm 2 mps 670 mmHg 64%

    21 July, Saturday

    Time Temperature Precipitation Wind Pressure Humidity
    00:00 +24°C° 0 mm 2 mps 670 mmHg 62%
    01:00 +24°C° 0 mm 3 mps 670 mmHg 61%
    02:00 +24°C° 0 mm 3 mps 670 mmHg 59%
    03:00 +24°C° 0 mm 3 mps 670 mmHg 58%
    04:00 +25°C° 0 mm 3 mps 670 mmHg 58%
    05:00 +25°C° 0 mm 3 mps 670 mmHg 57%
    06:00 +26°C° 0 mm 3 mps 671 mmHg 57%
    07:00 +28°C° 0 mm 3 mps 671 mmHg 53%
    08:00 +30°C° 0 mm 4 mps 671 mmHg 48%
    09:00 +32°C° 0 mm 4 mps 672 mmHg 44%
    10:00 +33°C° 0.1 mm 5 mps 672 mmHg 44%
    11:00 +33°C° 0.1 mm 5 mps 672 mmHg 43%
    12:00 +34°C° 0.1 mm 6 mps 672 mmHg 43%
    13:00 +33°C° 0.5 mm 6 mps 671 mmHg 45%
    14:00 +33°C° 0.5 mm 6 mps 671 mmHg 46%
    15:00 +32°C° 0.5 mm 6 mps 671 mmHg 48%
    16:00 +30°C° 0.3 mm 5 mps 671 mmHg 51%
    17:00 +29°C° 0.3 mm 4 mps 671 mmHg 55%
    18:00 +28°C° 0.3 mm 3 mps 671 mmHg 58%
    19:00 +27°C° 0.2 mm 3 mps 671 mmHg 63%
    20:00 +25°C° 0.2 mm 3 mps 671 mmHg 67%
    21:00 +24°C° 0.2 mm 2 mps 671 mmHg 72%
    22:00 +24°C° 0.3 mm 2 mps 671 mmHg 72%
    23:00 +23°C° 0.3 mm 2 mps 671 mmHg 72%
    Show more